Regional Weather Roundup
Issued by NWS

Home | Current Version | Previous Version | Text Only | Print | Product List | Glossary Off
Versions: 1 2 3 4 5 6 7 8 9 10 11 12 13 14 15 16 17 18 19 20 21 22 23 24 25 26 27 28 29 30 31 32 33 34 35 36 37 38 39 40 41 42 43 44 45 46 47 48 49 50

000
ASUS43 KMKX 011300
RWRWI

WISCONSIN REGIONAL WEATHER ROUNDUP
NATIONAL WEATHER SERVICE MILWAUKEE/SULLIVAN WI
800 AM CDT WED JUL 01 2015

NOTE: "FAIR" INDICATES FEW OR NO CLOUDS BELOW 12,000 FEET WITH NO
SIGNIFICANT WEATHER AND/OR OBSTRUCTIONS TO VISIBILITY.

WIZ001-002-006>008-014>016-023>028-011400-
NORTHWEST WISCONSIN

CITY           SKY/WX    TMP DP  RH WIND       PRES   REMARKS
SUPERIOR ARPT  MOSUNNY   53  52  96 CALM      30.03R
ASHLAND        MOSUNNY   52  50  93 CALM      30.04R
HAYWARD        MOSUNNY   53  49  86 CALM      30.04R
SIREN          PTSUNNY   53  51  92 CALM      30.02S
CUMBERLAND     PTSUNNY   52  46  82 CALM      30.03R
RICE LAKE      PTSUNNY   53  47  81 CALM      30.04S
CHETEK         PTSUNNY   52  48  86 CALM      30.03R
LADYSMITH      MOSUNNY   51  48  88 CALM      30.04S
EAU CLAIRE     MOSUNNY   54  49  83 NE3       30.02R
MENOMONIE      MOSUNNY   54  49  85 E3        30.02R
NEW RICHMOND   PTSUNNY   54  48  80 CALM      30.02R
OSCEOLA        CLOUDY    56  48  75 E3        30.04R
$$

WIZ003>005-009-010-017-018-011400-
NORTH CENTRAL WISCONSIN

CITY           SKY/WX    TMP DP  RH WIND       PRES   REMARKS
MANITOWISH WTR SUNNY     49  48  97 CALM      30.04R
ARBOR VITAE    SUNNY     52  48  86 N3        30.03R
WOODRUFF       SUNNY     52  48  86 N3        30.03R
RHINELANDER    SUNNY     51  43  74 VRB6      30.03R
EAGLE RIVER    SUNNY     47  45  93 CALM      30.02R
LAND O LAKES   SUNNY     50  44  79 N6        30.03S
PHILLIPS       PTSUNNY   46  45  95 CALM      30.03S
TOMAHAWK       SUNNY     47  46  97 CALM      30.03F
MEDFORD        MOSUNNY   48  46  90 NE5       30.02S
MERRILL        SUNNY     50  47  90 N5        30.02S
$$

WIZ029-030-035-036-043>047-011400-
CENTRAL WISCONSIN

CITY           SKY/WX    TMP DP  RH WIND       PRES   REMARKS
WAUSAU         SUNNY     52  44  74 N8        30.00R
MOSINEE        SUNNY     52  46  82 N5        30.02R
MARSHFIELD     SUNNY     55  44  66 NE7       30.02R
STEVENS POINT  SUNNY     48  44  85 N6        30.01R
WAUPACA        SUNNY     55  46  72 N6        30.00R
WAUTOMA        NOT AVBL
WISC RAPIDS    SUNNY     57  46  66 N7        30.02R
CAMP DOUGLAS   NOT AVBL
$$

WIZ011>013-019>022-031-037>040-048>050-011400-
NORTHEAST WISCONSIN

CITY           SKY/WX    TMP DP  RH WIND       PRES   REMARKS
ANTIGO         SUNNY     48  45  87 N9        30.00S
SHAWANO        SUNNY     53  45  73 N13       29.99R
OCONTO         CLOUDY    49  47  91 N9        29.98R
STURGEON BAY   CLOUDY    52  46  82 N10       29.99R
GREEN BAY      SUNNY     54  46  74 N9        29.98R
MANITOWOC      CLOUDY    55  50  82 MISG      29.96R
APPLETON       MOSUNNY   50  43  76 N9        29.99R
CLINTONVILLE   SUNNY     52  43  71 N8        29.98S
OSHKOSH        SUNNY     55  45  68 N9        29.98R
$$

WIZ032>034-041-042-053>061-011400-
SOUTHWEST WISCONSIN

CITY           SKY/WX    TMP DP  RH WIND       PRES   REMARKS
LA CROSSE      SUNNY     59  50  72 NE9       30.00R
SPARTA         SUNNY     51  48  92 CALM      30.01F
VIROQUA        SUNNY     54  49  83 E9        30.00R
BOSCOBEL       MOSUNNY   58  52  80 NE6       29.99R
PRAIRIE DU CHI SUNNY     57  54  90 CALM      29.99R
PLATTEVILLE    CLOUDY    59  57  92 NE8       29.98R
$$

WIZ056-057-062-063-064-067-068-011400-
SOUTH CENTRAL WISCONSIN

CITY           SKY/WX    TMP DP  RH WIND       PRES   REMARKS
REEDSBURG      SUNNY     55  47  76 NE5       29.99S
BARABOO/DELLS  SUNNY     54  45  70 NE6       29.99S
LONE ROCK      MOSUNNY   57  49  74 E3        30.00R
MINERAL POINT  CLOUDY    59  54  82 NE7       29.98S
MADISON        PTSUNNY   58  47  66 N5        29.98S
MIDDLETON      CLOUDY    59  46  63 NE8       29.99S
WATERTOWN      PTSUNNY   56  47  73 N8        29.98R
MONROE         CLOUDY    57  55  94 NE3       29.98R
JANESVILLE     NOT AVBL
$$

WIZ051-052-058>065-066-070>072-011400-
SOUTHEAST WISCONSIN

CITY           SKY/WX    TMP DP  RH WIND       PRES   REMARKS
MILWAUKEE      MOSUNNY   57  45  64 NW7       29.98R
WAUKESHA       MOSUNNY   55  46  71 NW7       29.98S
MILWAUKEE/TIMM SUNNY     55  43  62 N6        29.98R
RACINE         SUNNY     58  48  69 N6        29.99R
BURLINGTON     CLOUDY    55  52  88 CALM      29.97R
KENOSHA        PTSUNNY   58  50  75 N5        29.97S
FOND DU LAC    SUNNY     57  47  69 NW6       29.98R
SHEBOYGAN      CLOUDY    54  48  80 NW6       29.97R
WEST BEND      MOSUNNY   54  45  71 N6        29.97R
JUNEAU         SUNNY     54  46  74 N7        29.99R
$$

LSZ147-162-011400-
LAKE SUPERIOR

STATION/POSITION TIME  TEMP    WIND        PRES    WAVE
                       AIR SEA DIR/SP/G            HT/PER
                 (UTC) (F)     (DEG/KT/KT) (MB)    (FT/S)
W MID LAKE BUOY  1150   43 38  210/  6/  8 1017.1R   1/ 5
DEVILS ISLAND    1200   53     140/  4/  5 1017.2R
SAXON HARBOR     1200   46      CALM  /  4 1016.6R
$$

LMZ867-665-643>646-011400-
LAKE MICHIGAN

STATION/POSITION TIME  TEMP    WIND        PRES    WAVE
                       AIR SEA DIR/SP/G            HT/PER
                 (UTC) (F)     (DEG/KT/KT) (MB)    (FT/S)
CHAMBERS ISLAND  1200   51     330/ 13/ 16 1014.9R
N MID LAKE BUOY  1150   45 40  320/ 10/ 12 1013.9R   2/ 4
NORTHPORT PIER   1200   51     330/ 14/ 17 1014.6R
SISTER BAY       1244   51     340/ 16/ 19   N/A
ALGOMA LAKESHORE 1210          320/  6/ 10   N/A
KEWAUNEE LAKESHO 1200   53     330/  2/  6 1013.6S
SHEBOYGAN LAKESH 1200   52     320/  9/ 11 1014.7F
PORT WASHINGTON  1240   57     320/  6/  9 1015.6R
ATWATER BUOY     1200   56     330/ 10/ 12 1015.7R
MILWAUKEE LAKESH 1200   56     330/  6/  8   N/A
KENOSHA   LAKESH 1200   56     290/  4/  5 1014.9R
$$

TC  - TEMPERATURE IN CELSIUS
VSB - VISIBILITY IN STATUTE MILES
WCI - WIND CHILL INDEX
HX  - HEAT INDEX



USA.gov is the U.S. government's official web portal to all federal, state and local government web resources and services.